RH
59 52 51 45 54 72 60 65 65 69 70 65 60 66 74 77 83 81 60 63 62 60 58 53 51 52 51 51 52 52 52 53 55 56 57 60 59 55 51 48 46 50 51 49 52 56 63 63 63
65 63 63 59 71 82 66 60 76 66 68 68 63 63 65 68 69 66 60 62 64 61 59 57 56 54 57 56 58 58 57 57 57 57 60 61 59 58 56 51 49 48 50 54 57 59 64 67 68
63 61 68 73 72 78 66 71 63 64 66 69 62 61 59 61 58 61 63 64 66 63 64 57 55 58 62 63 62 62 61 61 60 62 63 63 62 61 58 54 52 51 52 52 55 64 71 74 74
64 69 71 82 66 67 64 70 68 62 60 62 60 62 57 53 53 59 63 65 66 65 65 55 54 62 63 63 67 68 70 71 72 75 72 69 68 65 61 55 55 56 56 55 56 65 76 80 80
66 69 74 71 64 63 65 65 70 69 59 58 65 60 57 47 45 51 58 62 64 68 63 56 56 58 60 64 65 69 74 77 79 81 86 84 81 75 70 59 57 57 58 58 67 79 77 77 83
72 74 73 67 64 63 65 65 62 62 60 57 62 60 58 57 50 48 56 62 62 66 63 61 58 60 63 65 65 62 72 75 80 83 85 88 88 84 71 60 59 60 65 68 78 81 78 79 83
62 64 67 60 60 64 64 63 64 65 58 65 56 72 63 65 62 58 57 63 62 61 64 63 61 63 62 64 65 67 73 72 76 82 85 86 87 86 76 64 61 62 63 71 80 85 75 73 76
56 58 56 61 72 66 63 60 58 63 70 54 56 69 61 67 71 69 67 65 71 62 65 66 65 64 68 67 68 71 75 80 83 86 87 90 91 89 80 68 66 66 71 78 80 85 81 71 71
46 63 60 61 59 54 52 56 52 47 51 53 50 57 56 56 66 71 70 68 72 65 66 70 71 63 69 74 69 72 76 81 85 87 93 90 90 89 85 74 70 74 77 81 81 79 72 64 66
51 58 52 50 53 55 50 56 46 51 55 49 53 63 58 54 58 64 65 69 69 69 69 70 72 69 70 78 76 72 83 82 84 84 89 90 90 88 83 87 81 84 80 81 81 76 66 63 78
44 57 46 47 46 54 58 55 56 54 76 77 59 53 55 58 57 66 67 68 69 66 66 74 76 73 73 77 83 85 85 83 80 83 86 90 90 90 90 94 85 87 85 83 84 76 71 80 82
52 37 39 39 39 41 52 52 55 51 80 55 60 56 59 62 60 65 66 72 79 69 66 74 74 73 73 74 82 83 87 84 87 84 84 86 91 92 94 93 91 83 82 82 81 73 76 76 80
47 38 31 31 35 38 40 44 49 45 42 46 57 58 62 64 69 68 66 66 73 72 70 71 71 73 74 72 78 88 85 86 82 85 85 90 91 90 90 93 87 84 78 77 78 73 75 76 80
45 36 35 36 39 42 44 44 44 51 47 50 57 61 63 65 75 82 81 72 72 74 72 76 75 74 71 74 75 89 89 88 86 79 85 85 90 89 91 88 82 84 79 80 76 85 79 89 84
40 32 35 40 43 44 43 51 50 48 49 52 58 65 65 68 80 94 88 81 73 72 77 80 76 71 73 75 75 80 85 93 87 82 80 78 82 86 88 84 80 79 74 74 85 79 85 77 80
30 33 44 42 41 45 40 57 49 48 50 55 61 59 63 65 76 83 89 91 76 76 80 80 72 71 69 73 74 78 86 88 87 90 81 80 80 86 87 85 76 69 60 81 84 89 92 87 79
37 43 47 46 41 45 43 67 45 44 50 56 57 57 62 71 95 88 93 81 80 84 84 77 73 70 70 75 73 74 81 83 80 82 87 81 82 84 87 84 81 64 60 82 87 86 90 82 78
36 40 36 42 48 50 53 49 46 45 50 54 57 62 76 82 84 92 92 85 81 86 76 74 77 77 77 71 73 73 74 76 73 74 75 83 86 82 85 86 81 68 53 83 82 83 89 85 78
43 37 37 42 40 44 43 41 39 41 44 46 53 58 68 88 87 91 86 87 91 75 78 71 70 68 68 70 67 66 67 67 70 82 88 90 81 82 86 86 84 76 65 83 81 83 84 85 90
41 37 37 41 34 36 42 43 45 44 42 45 51 59 68 82 90 85 82 80 79 71 67 69 66 68 67 68 69 69 70 71 83 91 89 83 86 90 86 84 86 85 70 80 77 83 89 89 92
36 36 42 38 45 31 45 61 58 47 39 43 54 55 59 63 67 73 73 68 65 59 59 60 62 61 62 69 74 75 82 88 91 86 94 89 90 91 87 84 87 84 76 65 72 85 82 80 86
33 38 36 35 34 52 39 55 60 46 42 46 55 54 52 53 53 55 56 57 55 58 58 60 64 72 73 74 80 78 81 86 85 88 85 85 87 88 89 87 87 82 64 56 83 84 82 83 83
36 38 36 36 33 35 42 46 89 42 45 44 51 53 54 55 55 53 53 57 63 69 71 68 68 69 73 77 77 81 79 79 81 86 85 84 88 84 78 80 81 82 66 67 77 84 81 81 77
37 33 32 36 32 34 42 43 76 66 40 37 46 46 49 51 56 56 60 60 60 64 64 63 64 61 65 69 70 80 77 77 72 78 85 86 83 86 86 82 70 67 70 70 73 70 76 75 82
31 34 39 39 30 37 36 41 67 50 37 32 38 43 44 48 53 57 61 62 65 68 71 71 68 61 57 57 62 68 65 60 75 73 75 80 80 79 79 79 77 62 55 61 67 63 67 70 69
34 32 49 60 57 54 47 42 62 48 41 34 35 37 42 46 50 53 53 54 54 54 60 67 70 69 71 69 70 68 66 74 70 68 61 62 64 69 69 73 74 76 62 49 54 59 62 62 58
36 33 43 45 41 39 63 47 41 40 43 33 37 35 40 44 48 54 54 54 49 48 50 52 54 62 66 70 73 73 73 68 62 62 65 67 57 60 63 68 70 69 68 63 53 52 56 60 60
35 33 32 36 38 39 46 44 52 44 43 36 39 36 36 40 40 43 43 46 47 51 50 48 46 49 53 57 63 70 74 76 74 67 62 59 60 58 55 55 62 66 67 66 64 58 53 49 52
30 32 33 32 32 37 67 59 56 41 40 40 45 43 40 40 42 48 50 53 52 56 54 53 51 50 50 47 55 61 65 67 69 73 70 64 64 61 58 55 52 52 56 59 59 62 61 61 58
31 32 25 25 32 42 41 64 34 44 41 41 48 52 52 42 51 58 54 56 58 59 58 54 46 41 36 31 29 29 33 38 50 57 63 61 61 71 69 67 66 60 54 54 56 53 54 55 56